| time (UTC) | temp F | wind direction | speed knots | gust knots | rain 1hr in | rain 24hr in | rain mn in | humidity % | barometer mb |
| 20260507084022 | 52 | 315 | 0.0 | 0.0 | 0.00 | 0.10 | 0.00 | 19 | 1012.2 |
| 20260507082522 | 50 | 292 | 0.0 | 0.0 | 0.00 | 0.10 | 0.00 | 20 | 1012.2 |
| 20260507081022 | 50 | 315 | 0.9 | 0.0 | 0.00 | 0.10 | 0.00 | 23 | 1012.2 |
| 20260507075522 | 50 | 270 | 0.0 | 0.0 | 0.00 | 0.10 | 0.00 | 27 | 1012.0 |
| 20260507074022 | 53 | 337 | 0.9 | 0.0 | 0.00 | 0.10 | 0.00 | 26 | 1011.9 |
| 20260507072522 | 52 | 270 | 2.6 | 0.0 | 0.00 | 0.10 | 0.00 | 20 | 1011.9 |
| 20260507071022 | 49 | 270 | 0.0 | 0.0 | 0.00 | 0.10 | 0.00 | 23 | 1011.5 |
| 20260507065522 | 50 | 180 | 0.0 | 0.0 | 0.00 | 0.10 | 0.00 | 27 | 1011.5 |
| 20260507064022 | 51 | 90 | 0.0 | 0.0 | 0.00 | 0.10 | 0.00 | 26 | 1011.5 |
| 20260507062522 | 51 | 22 | 4.3 | 0.0 | 0.00 | 0.10 | 0.00 | 22 | 1011.4 |
| 20260507061022 | 50 | 247 | 10.4 | 0.0 | 0.00 | 0.10 | 0.00 | 20 | 1011.2 |
| 20260507055522 | 50 | 337 | 0.0 | 0.0 | 0.00 | 0.10 | 0.00 | 16 | 1011.0 |
| 20260507054022 | 49 | 292 | 0.0 | 0.0 | 0.00 | 0.10 | 0.00 | 11 | 1011.0 |
| 20260507052522 | 48 | 292 | 0.0 | 0.0 | 0.00 | 0.10 | 0.00 | 1011.0 | |
| 20260507051022 | 47 | 202 | 1.7 | 0.0 | 0.00 | 0.10 | 0.00 | 1010.7 | |
| 20260507045522 | 46 | 45 | 1.7 | 0.0 | 0.00 | 0.10 | 0.00 | 1010.5 | |
| 20260507044022 | 46 | 315 | 0.0 | 0.0 | 0.00 | 0.10 | 0.00 | 1010.4 | |
| 20260507042522 | 44 | 202 | 0.0 | 0.0 | 0.00 | 0.10 | 0.00 | 1010.0 | |
| 20260507041022 | 44 | 315 | 0.0 | 0.0 | 0.00 | 0.10 | 0.00 | 1009.9 | |
| 20260507035522 | 44 | 0 | 0.0 | 0.0 | 0.00 | 0.12 | 0.00 | 1009.9 | |
| 20260507034022 | 44 | 292 | 2.6 | 0.0 | 0.00 | 0.12 | 0.00 | 1009.7 | |
| 20260507032522 | 45 | 315 | 1.7 | 0.0 | 0.00 | 0.12 | 0.00 | 1009.7 | |
| 20260507031022 | 45 | 225 | 2.6 | 0.0 | 0.00 | 0.12 | 0.00 | 1009.7 | |
| 20260507025522 | 46 | 225 | 2.6 | 0.0 | 0.00 | 0.12 | 0.00 | 1009.7 | |
| 20260507024022 | 46 | 90 | 4.3 | 0.0 | 0.00 | 0.12 | 0.00 | 1009.7 | |
| 20260507022522 | 46 | 270 | 0.0 | 0.0 | 0.00 | 0.12 | 0.00 | 1009.7 | |
| 20260507021022 | 45 | 22 | 0.0 | 0.0 | 0.00 | 0.12 | 0.00 | 1009.5 | |
| 20260507015522 | 45 | 337 | 0.0 | 0.0 | 0.00 | 0.12 | 0.00 | 1009.5 | |
| 20260507014022 | 44 | 270 | 0.0 | 0.0 | 0.00 | 0.12 | 0.00 | 1009.4 | |
| 20260507012522 | 44 | 202 | 0.0 | 0.0 | 0.00 | 0.12 | 0.00 | 1009.7 | |
| 20260507011022 | 43 | 270 | 0.0 | 0.0 | 0.00 | 0.12 | 0.00 | 1009.7 | |
| 20260507005522 | 43 | 292 | 0.0 | 0.0 | 0.00 | 0.12 | 0.00 | 1009.5 | |
| 20260507004022 | 43 | 270 | 0.0 | 0.0 | 0.00 | 0.12 | 0.00 | 1009.2 | |
| 20260507002522 | 43 | 0 | 0.0 | 0.0 | 0.00 | 0.12 | 0.00 | 10 | 1009.4 |
| 20260507001022 | 44 | 337 | 0.0 | 0.0 | 0.00 | 0.12 | 0.00 | 12 | 1009.2 |
| 20260506235522 | 44 | 337 | 0.0 | 0.0 | 0.00 | 0.12 | 0.00 | 15 | 1009.5 |
| 20260506234022 | 44 | 337 | 0.0 | 0.0 | 0.00 | 0.12 | 0.00 | 17 | 1009.5 |
| 20260506232522 | 45 | 337 | 0.0 | 0.0 | 0.00 | 0.12 | 0.00 | 17 | 1009.5 |
| 20260506231022 | 46 | 0 | 0.0 | 0.0 | 0.00 | 0.12 | 0.00 | 17 | 1009.2 |
| 20260506225522 | 46 | 337 | 0.0 | 0.0 | 0.00 | 0.12 | 0.00 | 19 | 1009.0 |
| 20260506224022 | 46 | 292 | 0.0 | 0.0 | 0.00 | 0.12 | 0.00 | 19 | 1009.0 |
| 20260506222522 | 46 | 0 | 2.6 | 0.0 | 0.00 | 0.12 | 0.00 | 20 | 1009.0 |
| 20260506221022 | 46 | 22 | 1.7 | 0.0 | 0.00 | 0.12 | 0.00 | 21 | 1009.0 |
| 20260506215522 | 47 | 337 | 0.0 | 0.0 | 0.00 | 0.12 | 0.00 | 22 | 1009.0 |
| 20260506214022 | 47 | 337 | 0.0 | 0.0 | 0.00 | 0.12 | 0.00 | 22 | 1009.0 |
| 20260506212522 | 47 | 22 | 0.0 | 0.0 | 0.00 | 0.12 | 0.00 | 22 | 1009.0 |
| 20260506211022 | 47 | 292 | 12.2 | 0.0 | 0.00 | 0.12 | 0.00 | 23 | 1008.9 |
| 20260506205522 | 47 | 0 | 0.0 | 0.0 | 0.00 | 0.12 | 0.00 | 24 | 1008.7 |
| 20260506204022 | 47 | 0 | 1.7 | 0.0 | 0.00 | 0.12 | 0.00 | 25 | 1008.7 |
| 20260506202522 | 47 | 45 | 2.6 | 0.0 | 0.00 | 0.12 | 0.00 | 25 | 1008.5 |
| 20260506201021 | 47 | 292 | 3.5 | 0.0 | 0.00 | 0.12 | 0.00 | 27 | 1008.5 |
| 20260506195521 | 47 | 337 | 0.9 | 0.0 | 0.00 | 0.12 | 0.00 | 28 | 1008.5 |
| 20260506194021 | 47 | 270 | 0.0 | 0.0 | 0.00 | 0.12 | 0.00 | 29 | 1008.5 |
| 20260506192522 | 47 | 0 | 2.6 | 0.0 | 0.00 | 0.12 | 0.00 | 30 | 1008.4 |
| 20260506191021 | 47 | 247 | 0.9 | 0.0 | 0.00 | 0.12 | 0.00 | 33 | 1008.0 |
| 20260506185521 | 47 | 22 | 3.5 | 0.0 | 0.00 | 0.16 | 0.00 | 37 | 1007.9 |
| 20260506184021 | 48 | 292 | 5.2 | 0.0 | 0.00 | 0.16 | 0.00 | 38 | 1007.7 |
| 20260506182521 | 50 | 292 | 0.0 | 0.0 | 0.00 | 0.16 | 0.00 | 41 | 1007.5 |
| 20260506181021 | 50 | 112 | 0.0 | 0.0 | 0.00 | 0.16 | 0.00 | 42 | 1007.2 |
| 20260506175521 | 51 | 22 | 0.0 | 0.0 | 0.00 | 0.16 | 0.00 | 44 | 1007.2 |
| 20260506174021 | 54 | 315 | 2.6 | 0.0 | 0.00 | 0.16 | 0.00 | 44 | 1007.0 |
| 20260506172521 | 57 | 337 | 1.7 | 0.0 | 0.00 | 0.16 | 0.00 | 43 | 1007.0 |
| 20260506171021 | 54 | 337 | 2.6 | 0.0 | 0.00 | 0.16 | 0.00 | 40 | 1006.9 |
| 20260506165521 | 52 | 202 | 2.6 | 0.0 | 0.00 | 0.16 | 0.00 | 42 | 1006.7 |
| 20260506164021 | 51 | 0 | 4.3 | 0.0 | 0.00 | 0.16 | 0.00 | 42 | 1006.4 |
| 20260506162521 | 52 | 0 | 0.9 | 0.0 | 0.00 | 0.16 | 0.00 | 43 | 1006.7 |
| 20260506161021 | 53 | 225 | 2.6 | 0.0 | 0.00 | 0.16 | 0.00 | 44 | 1006.7 |
| 20260506155521 | 55 | 22 | 10.4 | 0.0 | 0.06 | 0.16 | 0.00 | 43 | 1006.5 |
| 20260506154021 | 53 | 292 | 7.8 | 0.0 | 0.06 | 0.16 | 0.00 | 41 | 1006.2 |
| 20260506152521 | 53 | 22 | 1.7 | 0.0 | 0.06 | 0.16 | 0.00 | 41 | 1006.2 |
| 20260506151021 | 55 | 337 | 1.7 | 0.0 | 0.06 | 0.16 | 0.00 | 46 | 1005.9 |
| 20260506145521 | 66 | 315 | 5.2 | 0.0 | 0.00 | 0.10 | 0.00 | 40 | 1005.2 |
| 20260506144023 | 79 | 202 | 0.0 | 0.0 | 0.02 | 0.10 | 0.00 | 33 | 1004.2 |
| 20260506142521 | 77 | 225 | 1.7 | 0.0 | 0.02 | 0.10 | 0.00 | 35 | 1004.2 |
| 20260506141021 | 70 | 180 | 0.0 | 0.0 | 0.04 | 0.10 | 0.00 | 38 | 1004.4 |
| 20260506135521 | 59 | 135 | 0.0 | 0.0 | 0.04 | 0.10 | 0.00 | 38 | 1004.2 |
| 20260506134021 | 58 | 112 | 4.3 | 0.0 | 0.02 | 0.08 | 0.00 | 43 | 1004.2 |
| 20260506132521 | 61 | 157 | 0.0 | 0.0 | 0.00 | 0.06 | 0.00 | 45 | 1004.9 |
| 20260506131021 | 64 | 112 | 0.0 | 0.0 | 0.00 | 0.06 | 0.00 | 43 | 1005.0 |
| 20260506125521 | 67 | 45 | 0.0 | 0.0 | 0.00 | 0.06 | 0.00 | 40 | 1004.7 |
| 20260506124021 | 70 | 22 | 0.0 | 0.0 | 0.00 | 0.06 | 0.00 | 37 | 1004.2 |
| 20260506122521 | 72 | 45 | 1.7 | 0.0 | 0.00 | 0.06 | 0.00 | 36 | 1004.0 |
| 20260506121021 | 70 | 90 | 0.0 | 0.0 | 0.00 | 0.06 | 0.00 | 38 | 1004.2 |
| 20260506115521 | 70 | 112 | 5.2 | 0.0 | 0.00 | 0.06 | 0.00 | 37 | 1004.2 |
| 20260506114021 | 72 | 247 | 3.5 | 0.0 | 0.00 | 0.06 | 0.00 | 35 | 1004.4 |
| 20260506112522 | 72 | 67 | 0.0 | 0.0 | 0.00 | 0.06 | 0.00 | 35 | 1004.4 |
| 20260506111021 | 75 | 135 | 2.6 | 0.0 | 0.00 | 0.06 | 0.00 | 33 | 1004.7 |
| 20260506105521 | 76 | 157 | 4.3 | 0.0 | 0.00 | 0.06 | 0.00 | 33 | 1004.9 |
| 20260506104021 | 75 | 67 | 0.0 | 0.0 | 0.00 | 0.06 | 0.00 | 34 | 1005.0 |
| 20260506102522 | 68 | 112 | 0.9 | 0.0 | 0.00 | 0.06 | 0.00 | 38 | 1004.7 |
| 20260506101021 | 65 | 135 | 0.0 | 0.0 | 0.00 | 0.06 | 0.00 | 40 | 1005.0 |
| 20260506095521 | 65 | 112 | 3.5 | 0.0 | 0.00 | 0.06 | 0.00 | 39 | 1005.2 |
| 20260506094021 | 67 | 22 | 3.5 | 0.0 | 0.00 | 0.06 | 0.00 | 38 | 1005.5 |
| 20260506092521 | 70 | 337 | 0.0 | 0.0 | 0.00 | 0.06 | 0.00 | 36 | 1005.2 |
| 20260506091021 | 70 | 135 | 0.0 | 0.0 | 0.00 | 0.06 | 0.00 | 35 | 1005.2 |
| 20260506085521 | 68 | 112 | 0.0 | 0.0 | 0.00 | 0.06 | 0.00 | 35 | 1005.4 |